Regional Weather Roundup
Issued by NWS Newport/Morehead, NC

Current Version | Previous Version | Text Only | Print | Product List | Glossary On
Versions: 1 2 3 4 5 6 7 8 9 10 11 12 13 14 15 16 17 18 19 20 21 22 23 24 25 26 27 28 29 30 31 32 33 34 35 36 37 38 39 40 41 42 43 44 45 46 47 48 49 50
000
ASUS42 KMHX 281413
RWRMHX
WEATHER ROUNDUP FOR EASTERN NORTH CAROLINA
NATIONAL WEATHER SERVICE NEWPORT/MOREHEAD CITY NC
1000 AM EDT FRI AUG 28 2015

NOTE: "FAIR" INDICATES FEW OR NO CLOUDS BELOW 12,000 FEET
WITH NO SIGNIFICANT WEATHER AND/OR OBSTRUCTIONS TO VISIBILITY

NCZ015>017-031-032-045>047-102-103-281500-
NORTH COAST

CITY           SKY/WX    TMP DP  RH WIND       PRES   REMARKS
EDENTON        MOSUNNY   75  65  69 NE8       30.17R
ELIZABETH CITY MOSUNNY   79  65  62 N13       30.16R
KITTY HAWK     PTSUNNY   80  63  55 NE8       30.14R
MANTEO         PTSUNNY   78  63  61 NE12      30.15R

$$

NCZ045>047-081-094-103-104-281500-
CENTRAL COAST

CITY           SKY/WX    TMP DP  RH WIND       PRES   REMARKS
FRISCO         MOSUNNY   79  65  62 NE7       30.12R
SWANQUARTER    NOT AVBL

$$

NCZ095-097-098-100-101-281500-
SOUTHERN COAST

CITY           SKY/WX    TMP DP  RH WIND       PRES   REMARKS
BEAUFORT       MOSUNNY   79  69  71 NE9       30.12R
CEDAR ISLAND   NOT AVBL
JACKSONVILLE   MOSUNNY   78  64  61 NE12      30.13R
PINEY ISLAND   SUNNY    N/A N/A N/A NE15      30.13R
WILMINGTON     PTSUNNY   78  68  71 NE12      30.13R


$$

NCZ011>013-027>030-043-044-078>080-089-090>093-098-281500-
COASTAL PLAIN

CITY           SKY/WX    TMP DP  RH WIND       PRES   REMARKS
AHOSKIE        SUNNY     75  61  61 N9        30.19R
CLINTON        PTSUNNY   75  66  71 NE6       30.16R
ELIZABETHTOWN  MOSUNNY   75  64  67 CALM      30.15R
GOLDSBORO      MOSUNNY   74  64  71 NE8       30.16R
GREENVILLE     MOSUNNY   75  64  69 NE9       30.18R
HAVELOCK       SUNNY     80  65  59 NE14      30.14R
KENANSVILLE      N/A     73  64  73 NE6       30.17R
KINSTON        MOSUNNY   75  64  69 NE9       30.17R
NEW BERN       MOSUNNY   77  65  66 NE10      30.15R
RICHLANDS      PTSUNNY   79  63  57 NE12G17   30.14S
ROCKY MOUNT    SUNNY     79  60  52 NE12      30.18R
WASHINGTON     MOSUNNY   74  65  72 NE7       30.16S
WHITEVILLE     PTSUNNY   74  66  74 NE8       30.13S

$$

AMZ130-135-150-152-154-156-158-170-250-252-270-ANZ085-086-088-633-658-670-281500-
MARINE OBSERVATIONS

STATION/POSITION TIME  TEMP    WIND        PRES    WAVE   SWELL
                       AIR SEA DIR/SP/G            HT/PER HT/PER
                 (UTC) (F)     (DEG/KT/KT) (MB)    (FT/S) (FT/S)
CHESAPEAKE LIGHT 1400   75      20/ 12/ 14 1022.2
64 E VA BEACH    1350   77 79   40/ 14/ 16 1020.3    4/ 9   3/ 9
DUCK             1300   76 78   40/ 16/ 18 1019.8
2 E DUCK         1311      78                N/A     4/12   2/12
OREGON INLET     1300   77 75   40/ 12/ 17 1019.9
13E OREGON INLT  1400      79                N/A     5/ 5   2/12
HATTERAS CG      1300   78 78   30/ 11/ 16 1019.4
DIAMOND BUOY     1350   79 82   40/ 17/ 21 1019.3    5/ 5   2/ 9
CAPE LOOKOUT     1400   78      40/ 18/ 21 1019.7
BEAUFORT LAB     1300   77 79   40/  7/  9 1018.8
30 SE NEW RVR IN 1308   79 82   60/ 17/ 21 1019.0
30 SE NEW RVR IN 1325      82                N/A     4/ 5   2/11
27 SE WRIGHTSVLE 1300   77 82   60/ 16/ 17   N/A
5 SE WRIGHTSVLE  1308   76 82   30/ 16/ 21 1019.2
225 S CAPE HAT   1350   81 84  170/  6/  8 1018.0    3/11   3/11
41 SE CHARLESTON 1350   81 84   20/ 10/ 12 1018.0    3/ 9   2/ 9

$$


USA.gov is the U.S. government's official web portal to all federal, state and local government web resources and services.